GW2402 Weather Reports


Display with metric or nautical units.
time (UTC)temp
F
wind
direction
speed
MPH
gust
MPH
rain 1hr
in
rain 24hr
in
rain mn
in
humidity
%
barometer
mb
20260905190100 95 16 0.0 3.0 0.00 0.00 0.00 49 1012.8
20260905184558 95 0 0.0 2.0 0.00 0.00 0.00 49 1013.0
20260905183117 94 0 0.0 2.0 0.00 0.00 0.00 49 1013.2
20260905181557 94 263 0.0 2.0 0.00 0.00 0.00 53 1013.5
20260905180049 93 281 0.0 1.0 0.00 0.00 0.00 54 1013.8
20260905174548 92 0 0.0 2.0 0.00 0.00 0.00 58 1014.1
20260905173054 92 0 0.0 3.0 0.00 0.00 0.00 57 1014.4
20260905171551 92 0 0.0 2.0 0.00 0.00 0.00 59 1014.5
20260905170050 90 0 0.0 6.0 0.00 0.00 0.00 63 1014.6
20260905164550 89 25 1.0 5.0 0.00 0.00 0.00 64 1014.5
20260905163055 89 125 0.0 2.0 0.00 0.00 0.00 66 1014.7
20260905161554 89 0 0.0 2.0 0.00 0.00 0.00 65 1014.7
20260905160048 88 0 0.0 3.0 0.00 0.00 0.00 69 1014.6
20260905154549 87 0 0.0 2.0 0.00 0.00 0.00 71 1014.5
20260905153101 86 0 0.0 1.0 0.00 0.00 0.00 76 1014.6
20260905151552 85 0 0.0 3.0 0.00 0.00 0.00 78 1014.6
20260905150057 84 0 0.0 3.0 0.00 0.00 0.00 81 1014.7
20260905144555 83 0 0.0 1.0 0.00 0.00 0.00 84 1014.7
20260905143055 82 0 0.0 0.0 0.00 0.00 0.00 87 1014.5
20260905141555 81 0 0.0 0.0 0.00 0.00 0.00 88 1014.6
20260905140107 80 0 0.0 0.0 0.00 0.00 0.00 88 1014.4
20260905134557 80 0 0.0 0.0 0.00 0.00 0.00 89 1014.4
20260905133055 79 0 0.0 0.0 0.00 0.00 0.00 89 1014.2
20260905131606 79 0 0.0 0.0 0.00 0.00 0.00 90 1013.9
20260905130051 78 0 0.0 0.0 0.00 0.00 0.00 91 1014.0
20260905124557 78 0 0.0 0.0 0.00 0.00 0.00 91 1013.8
20260905123057 77 0 0.0 0.0 0.00 0.00 0.00 91 1013.6
20260905121559 78 0 0.0 0.0 0.00 0.00 0.00 91 1013.4
20260905120107 78 0 0.0 0.0 0.00 0.00 0.00 90 1013.2
20260905114554 78 0 0.0 0.0 0.00 0.00 0.00 90 1013.1
20260905113051 78 0 0.0 0.0 0.00 0.00 0.00 90 1013.1
20260905111606 78 0 0.0 0.0 0.00 0.00 0.00 90 1013.2
20260905110059 78 0 0.0 0.0 0.00 0.00 0.00 90 1013.1
20260905104555 78 0 0.0 0.0 0.00 0.00 0.00 90 1012.9
20260905103050 78 0 0.0 0.0 0.00 0.00 0.00 90 1012.8
20260905101602 78 0 0.0 0.0 0.00 0.00 0.00 90 1013.1
20260905100059 78 0 0.0 0.0 0.00 0.00 0.00 90 1012.6
20260905094557 79 0 0.0 0.0 0.00 0.00 0.00 89 1012.6
20260905093051 79 0 0.0 0.0 0.00 0.00 0.00 89 1012.5
20260905091558 79 0 0.0 0.0 0.00 0.00 0.00 88 1012.8
20260905090055 79 0 0.0 0.0 0.00 0.00 0.00 88 1012.9
20260905084606 79 0 0.0 0.0 0.00 0.00 0.00 87 1012.8
20260905083051 79 0 0.0 0.0 0.00 0.00 0.00 87 1013.0
20260905081556 79 0 0.0 0.0 0.00 0.00 0.00 87 1013.0
20260905080056 80 0 0.0 0.0 0.00 0.00 0.00 87 1013.2
20260905074558 80 0 0.0 0.0 0.00 0.00 0.00 86 1013.2
20260905073100 80 0 0.0 1.0 0.00 0.00 0.00 85 1013.2
20260905071547 80 0 0.0 0.0 0.00 0.00 0.00 84 1013.5
20260905070101 80 0 0.0 0.0 0.00 0.00 0.00 83 1013.5
20260905064552 80 0 0.0 0.0 0.00 0.00 0.00 82 1013.3
20260905063048 81 0 0.0 0.0 0.00 0.00 0.00 82 1013.3
20260905061554 81 0 0.0 0.0 0.00 0.00 0.00 81 1013.6
20260905060059 81 0 0.0 0.0 0.00 0.00 0.00 80 1013.5
20260905054554 81 0 0.0 0.0 0.00 0.00 0.00 80 1013.6
20260905053117 81 0 0.0 0.0 0.00 0.00 0.00 79 1013.5
20260905051547 82 0 0.0 0.0 0.00 0.00 0.00 78 1013.7
20260905050059 82 0 0.0 0.0 0.00 0.00 0.00 78 1013.6
20260905044555 82 0 0.0 0.0 0.00 0.00 0.00 77 1013.5
20260905043049 82 0 0.0 1.0 0.00 0.00 0.00 77 1013.5
20260905041558 82 0 0.0 0.0 0.00 0.00 0.00 76 1013.5
20260905040055 83 0 0.0 0.0 0.00 0.00 0.00 76 1013.5
20260905034552 83 0 0.0 0.0 0.00 0.00 0.00 75 1013.5
20260905033059 83 0 0.0 0.0 0.00 0.00 0.00 74 1013.6
20260905031556 83 0 0.0 0.0 0.00 0.00 0.00 73 1013.3
20260905030053 84 0 0.0 0.0 0.00 0.00 0.00 73 1013.2
20260905024605 84 0 0.0 0.0 0.00 0.00 0.00 72 1012.9
20260905023052 84 0 0.0 0.0 0.00 0.00 0.00 71 1013.0
20260905021600 85 0 0.0 0.0 0.00 0.00 0.00 69 1012.9
20260905020106 85 0 0.0 0.0 0.00 0.00 0.00 70 1012.7
20260905014558 85 0 0.0 0.0 0.00 0.00 0.00 71 1012.6
20260905013049 86 0 0.0 0.0 0.00 0.00 0.00 70 1012.5
20260905011551 86 0 0.0 1.0 0.00 0.00 0.00 68 1012.4
20260905010055 87 0 0.0 1.0 0.00 0.00 0.00 68 1012.1
20260905004557 88 0 0.0 1.0 0.00 0.00 0.00 67 1011.8
20260905003050 88 150 0.0 1.0 0.00 0.00 0.00 66 1011.6
20260905001549 89 0 0.0 1.0 0.00 0.00 0.00 64 1011.7
20260905000057 89 0 0.0 1.0 0.00 0.00 0.00 62 1011.5
20260904234558 90 0 0.0 1.0 0.00 0.00 0.00 61 1011.4
20260904233052 90 133 0.0 0.0 0.00 0.00 0.00 61 1011.7
20260904231548 91 208 0.0 1.0 0.00 0.00 0.00 61 1011.7
20260904230057 91 0 0.0 1.0 0.00 0.00 0.00 60 1011.6
20260904224606 91 240 0.0 1.0 0.00 0.00 0.00 61 1011.6
20260904223052 93 92 0.0 2.0 0.00 0.00 0.00 59 1012.0
20260904221600 94 0 0.0 3.0 0.00 0.00 0.00 53 1011.8
20260904220057 93 0 0.0 2.0 0.00 0.00 0.00 56 1011.9
20260904214552 93 0 0.0 3.0 0.00 0.00 0.00 58 1012.1
20260904213050 92 260 0.0 3.0 0.00 0.00 0.00 58 1012.1
20260904211547 91 0 0.0 2.0 0.00 0.00 0.00 59 1012.8
20260904210052 90 0 0.0 3.0 0.00 0.00 0.00 64 1012.6
20260904204559 88 0 0.0 0.0 0.00 0.00 0.00 68 1012.7
20260904203050 88 0 0.0 0.0 0.00 0.00 0.00 70 1013.0
20260904201633 87 0 0.0 1.0 0.00 0.00 0.00 72 1013.4
20260904200107 86 0 0.0 0.0 0.00 0.00 0.00 75 1013.6